• In Uzbekistan
  • List of Countries
  • For 7 days
  • Water Temperature
  • Satellite Maps
  • Weather Map
  • Weather Widgets
  • user-avatar
    Login

    Hourly Weather Kanton

    Today, 23 September, Sunday

    Time Temperature Precipitation Wind Pressure Humidity
    00:00 +13°C° 0 mm 1 mps 749 mmHg 98%
    01:00 +13°C° 0 mm 1 mps 749 mmHg 98%
    02:00 +12°C° 0 mm 0 mps 749 mmHg 98%
    03:00 +11°C° 0 mm 0 mps 750 mmHg 98%
    04:00 +11°C° 0 mm 0 mps 750 mmHg 98%
    05:00 +12°C° 0 mm 0 mps 750 mmHg 98%
    06:00 +12°C° 0 mm 0 mps 750 mmHg 98%
    07:00 +12°C° 0 mm 0 mps 751 mmHg 97%
    08:00 +13°C° 0 mm 0 mps 751 mmHg 94%
    09:00 +15°C° 0 mm 0 mps 751 mmHg 90%
    10:00 +16°C° 0 mm 0 mps 751 mmHg 85%
    11:00 +17°C° 0 mm 0 mps 751 mmHg 82%
    12:00 +19°C° 0 mm 1 mps 751 mmHg 79%
    13:00 +20°C° 0 mm 1 mps 751 mmHg 76%
    14:00 +20°C° 0 mm 1 mps 750 mmHg 75%
    15:00 +20°C° 0 mm 1 mps 750 mmHg 75%
    16:00 +20°C° 0 mm 1 mps 750 mmHg 76%
    17:00 +19°C° 0 mm 1 mps 750 mmHg 81%
    18:00 +18°C° 0 mm 1 mps 750 mmHg 87%
    19:00 +15°C° 0 mm 1 mps 750 mmHg 92%
    20:00 +15°C° 0 mm 1 mps 750 mmHg 93%
    21:00 +14°C° 0 mm 1 mps 750 mmHg 94%
    22:00 +14°C° 0 mm 2 mps 750 mmHg 95%
    23:00 +14°C° 0 mm 2 mps 750 mmHg 96%

    Tomorrow, 24 September, Monday

    Time Temperature Precipitation Wind Pressure Humidity
    00:00 +14°C° 0 mm 2 mps 749 mmHg 96%
    01:00 +13°C° 0 mm 2 mps 749 mmHg 96%
    02:00 +13°C° 0 mm 2 mps 749 mmHg 96%
    03:00 +13°C° 0 mm 2 mps 749 mmHg 97%
    04:00 +13°C° 0 mm 2 mps 749 mmHg 97%
    05:00 +13°C° 0 mm 2 mps 749 mmHg 97%
    06:00 +13°C° 0 mm 2 mps 749 mmHg 97%
    07:00 +14°C° 0 mm 2 mps 749 mmHg 97%
    08:00 +14°C° 0 mm 3 mps 749 mmHg 91%
    09:00 +17°C° 0 mm 3 mps 749 mmHg 85%
    10:00 +19°C° 0 mm 3 mps 748 mmHg 79%
    11:00 +20°C° 0.2 mm 4 mps 748 mmHg 75%
    12:00 +21°C° 0.2 mm 4 mps 748 mmHg 72%
    13:00 +22°C° 0.2 mm 4 mps 748 mmHg 68%
    14:00 +22°C° 0.4 mm 4 mps 747 mmHg 70%
    15:00 +21°C° 0.4 mm 3 mps 747 mmHg 72%
    16:00 +21°C° 0.4 mm 3 mps 747 mmHg 74%
    17:00 +19°C° 0.1 mm 3 mps 747 mmHg 80%
    18:00 +18°C° 0.1 mm 3 mps 747 mmHg 85%
    19:00 +16°C° 0.1 mm 3 mps 747 mmHg 90%
    20:00 +16°C° 0 mm 2 mps 747 mmHg 91%
    21:00 +15°C° 0 mm 2 mps 747 mmHg 91%
    22:00 +15°C° 0 mm 2 mps 747 mmHg 91%
    23:00 +15°C° 0 mm 2 mps 747 mmHg 91%

    Day after tomorrow, 25 September, Tuesday

    Time Temperature Precipitation Wind Pressure Humidity
    00:00 +14°C° 0 mm 2 mps 747 mmHg 91%
    01:00 +14°C° 0 mm 2 mps 746 mmHg 91%
    02:00 +14°C° 0 mm 2 mps 747 mmHg 90%
    03:00 +13°C° 0 mm 2 mps 747 mmHg 89%
    04:00 +12°C° 0 mm 3 mps 747 mmHg 88%
    05:00 +13°C° 0 mm 2 mps 747 mmHg 87%
    06:00 +13°C° 0 mm 2 mps 747 mmHg 86%
    07:00 +13°C° 0 mm 2 mps 747 mmHg 85%
    08:00 +13°C° 0 mm 3 mps 747 mmHg 79%
    09:00 +15°C° 0 mm 4 mps 747 mmHg 73%
    10:00 +17°C° 0 mm 4 mps 747 mmHg 66%
    11:00 +17°C° 0 mm 5 mps 747 mmHg 63%
    12:00 +19°C° 0 mm 5 mps 746 mmHg 59%
    13:00 +20°C° 0 mm 6 mps 746 mmHg 55%
    14:00 +20°C° 0 mm 5 mps 746 mmHg 57%
    15:00 +20°C° 0 mm 5 mps 746 mmHg 59%
    16:00 +20°C° 0 mm 4 mps 746 mmHg 61%
    17:00 +19°C° 0 mm 4 mps 746 mmHg 66%
    18:00 +17°C° 0 mm 3 mps 746 mmHg 71%
    19:00 +16°C° 0 mm 3 mps 746 mmHg 77%
    20:00 +14°C° 0 mm 3 mps 746 mmHg 77%
    21:00 +13°C° 0 mm 3 mps 746 mmHg 77%
    22:00 +13°C° 0 mm 3 mps 746 mmHg 77%
    23:00 +13°C° 0 mm 3 mps 746 mmHg 75%

    26 September, Wednesday

    Time Temperature Precipitation Wind Pressure Humidity
    00:00 +13°C° 0 mm 3 mps 746 mmHg 72%
    01:00 +12°C° 0 mm 3 mps 746 mmHg 69%
    02:00 +13°C° 0.1 mm 4 mps 746 mmHg 67%
    03:00 +13°C° 0.1 mm 4 mps 746 mmHg 65%
    04:00 +13°C° 0.1 mm 4 mps 746 mmHg 63%
    05:00 +13°C° 0.2 mm 4 mps 746 mmHg 66%
    06:00 +12°C° 0.2 mm 4 mps 746 mmHg 70%
    07:00 +12°C° 0.2 mm 4 mps 746 mmHg 73%
    08:00 +13°C° 0.1 mm 4 mps 746 mmHg 74%
    09:00 +13°C° 0.1 mm 4 mps 747 mmHg 76%
    10:00 +13°C° 0.1 mm 4 mps 747 mmHg 77%
    11:00 +13°C° 0.1 mm 4 mps 747 mmHg 76%
    12:00 +14°C° 0.1 mm 5 mps 748 mmHg 76%
    13:00 +14°C° 0.1 mm 5 mps 748 mmHg 76%
    14:00 +13°C° 0.3 mm 4 mps 749 mmHg 80%
    15:00 +12°C° 0.3 mm 4 mps 749 mmHg 83%
    16:00 +11°C° 0.3 mm 3 mps 749 mmHg 86%
    17:00 +10°C° 0 mm 3 mps 750 mmHg 88%
    18:00 +10°C° 0 mm 3 mps 750 mmHg 89%
    19:00 +9°C° 0 mm 3 mps 751 mmHg 90%
    20:00 +9°C° 0 mm 3 mps 751 mmHg 90%
    21:00 +9°C° 0 mm 3 mps 751 mmHg 91%
    22:00 +9°C° 0 mm 3 mps 751 mmHg 92%
    23:00 +9°C° 0 mm 2 mps 751 mmHg 91%

    27 September, Thursday

    Time Temperature Precipitation Wind Pressure Humidity
    00:00 +9°C° 0 mm 2 mps 752 mmHg 91%
    01:00 +8°C° 0 mm 2 mps 752 mmHg 91%
    02:00 +8°C° 0 mm 2 mps 752 mmHg 91%
    03:00 +8°C° 0 mm 2 mps 752 mmHg 92%
    04:00 +7°C° 0 mm 2 mps 752 mmHg 93%
    05:00 +7°C° 0 mm 2 mps 752 mmHg 93%
    06:00 +7°C° 0 mm 2 mps 752 mmHg 93%
    07:00 +7°C° 0 mm 2 mps 751 mmHg 93%
    08:00 +8°C° 0 mm 2 mps 751 mmHg 87%
    09:00 +9°C° 0 mm 2 mps 751 mmHg 81%
    10:00 +10°C° 0 mm 3 mps 751 mmHg 74%
    11:00 +10°C° 0 mm 3 mps 751 mmHg 72%
    12:00 +11°C° 0 mm 3 mps 750 mmHg 70%
    13:00 +11°C° 0 mm 3 mps 750 mmHg 67%
    14:00 +11°C° 0 mm 3 mps 750 mmHg 66%
    15:00 +11°C° 0 mm 3 mps 749 mmHg 66%
    16:00 +11°C° 0 mm 3 mps 749 mmHg 65%
    17:00 +10°C° 0 mm 3 mps 749 mmHg 71%
    18:00 +8°C° 0 mm 3 mps 748 mmHg 77%
    19:00 +7°C° 0 mm 2 mps 748 mmHg 82%
    20:00 +7°C° 0 mm 2 mps 748 mmHg 82%
    21:00 +7°C° 0 mm 3 mps 747 mmHg 83%
    22:00 +5°C° 0 mm 3 mps 747 mmHg 83%
    23:00 +7°C° 0 mm 3 mps 747 mmHg 80%

    28 September, Friday

    Time Temperature Precipitation Wind Pressure Humidity
    00:00 +7°C° 0 mm 3 mps 746 mmHg 78%
    01:00 +7°C° 0 mm 3 mps 746 mmHg 76%
    02:00 +6°C° 0.1 mm 4 mps 745 mmHg 77%
    03:00 +6°C° 0.1 mm 4 mps 745 mmHg 78%
    04:00 +6°C° 0.1 mm 4 mps 744 mmHg 79%
    05:00 +5°C° 0.4 mm 5 mps 744 mmHg 81%
    06:00 +5°C° 0.4 mm 5 mps 744 mmHg 83%
    07:00 +4°C° 0.4 mm 6 mps 744 mmHg 85%
    08:00 +4°C° 0.1 mm 6 mps 744 mmHg 85%
    09:00 +6°C° 0.1 mm 5 mps 745 mmHg 84%
    10:00 +6°C° 0.1 mm 5 mps 745 mmHg 84%
    11:00 +7°C° 0.1 mm 5 mps 745 mmHg 82%
    12:00 +7°C° 0.1 mm 5 mps 746 mmHg 79%
    13:00 +7°C° 0.1 mm 5 mps 746 mmHg 77%
    14:00 +8°C° 0.1 mm 5 mps 746 mmHg 76%
    15:00 +8°C° 0.1 mm 5 mps 747 mmHg 76%
    16:00 +8°C° 0.1 mm 4 mps 747 mmHg 75%
    17:00 +7°C° 0 mm 4 mps 747 mmHg 79%
    18:00 +6°C° 0 mm 4 mps 747 mmHg 83%
    19:00 +6°C° 0 mm 4 mps 747 mmHg 86%
    20:00 +6°C° 0 mm 4 mps 746 mmHg 85%
    21:00 +6°C° 0 mm 4 mps 746 mmHg 84%
    22:00 +6°C° 0 mm 5 mps 745 mmHg 83%
    23:00 +6°C° 0 mm 5 mps 745 mmHg 82%
    Show more